Change the Weather History Date:

Thursday, April 4, 2013

  Actual Average Record
Temperature  
Mean Temperature 52 °F 51 °F  
Max Temperature 60 °F 64 °F 74 °F (2004)
Min Temperature 44 °F 38 °F 25 °F (2009)
Degree Days  
Heating Degree Days 13 14  
Month to date heating degree days 34 57  
Since 1 July heating degree days 4217 4518  
Cooling Degree Days 0 0  
Month to date cooling degree days 0 0  
Year to date cooling degree days 0 0  
Growing Degree Days 2 (Base 50)    
Moisture  
Dew Point 47 °F    
Average Humidity 77    
Maximum Humidity 92    
Minimum Humidity 62    
Precipitation  
Precipitation 0.18 in 0.03 in 0.46 in (2005)
Month to date precipitation 0.18 0.10  
Year to date precipitation 0.89 2.97  
Snow  
Snow 0.00 in - - ()
Snow Depth 0.00 in    
Sea Level Pressure  
Sea Level Pressure 29.82 in    
Wind  
Wind Speed 4 mph (West)    
Max Wind Speed 21 mph    
Max Gust Speed 24 mph    
Visibility 10 miles    
Events Rain    
T = Trace of Precipitation, MM = Missing Value Source: NWS Daily Summary

Daily Weather History Graph

Daily Weather History Graph

Search for Another Location

Airport or City:

Trip Planner

Search our weather history database for the weather conditions in past years. The results will help you decide how hot, cold, wet, or windy it might be!

Date:

Astronomy

Apr. 04, 2013 Rise Set
Actual Time 6:29 AM PDT 7:29 PM PDT
Civil Twilight 5:59 AM PDT 8:00 PM PDT
Nautical Twilight 5:22 AM PDT 8:37 PM PDT
Astronomical Twilight 4:44 AM PDT 9:15 PM PDT
Moon 3:18 AM PDT (4/4) 1:35 PM PDT (4/4)
Length of Visible Light 14h 01m
Length of Day
12h 59m
Waning Crescent, 32% of the Moon is Illuminated
Apr 4
Waning Crescent
Apr 10
New
Apr 18
First Quarter
Apr 25
Full
May 2
Last Quarter

Hourly Weather History & Observations

Time (PDT) Temp. Windchill Dew Point Humidity Pressure Visibility Wind Dir Wind Speed Gust Speed Precip Events Conditions
12:53 AM 51.1 °F - 42.1 °F 71% 29.93 in 10.0 mi Calm Calm - N/A   Clear
1:53 AM 48.9 °F - 42.1 °F 77% 29.93 in 10.0 mi Calm Calm - N/A   Clear
2:53 AM 46.9 °F - 42.1 °F 83% 29.91 in 10.0 mi NNW 4.6 mph - N/A   Clear
3:53 AM 45.0 °F 43.5 °F 42.1 °F 90% 29.90 in 10.0 mi North 3.5 mph - N/A   Clear
4:53 AM 46.0 °F - 42.1 °F 86% 29.88 in 10.0 mi Calm Calm - N/A   Clear
5:53 AM 46.0 °F - 42.1 °F 86% 29.87 in 10.0 mi Calm Calm - N/A   Clear
6:53 AM 48.0 °F - 44.1 °F 86% 29.83 in 10.0 mi North 13.8 mph - 0.00 in Rain Light Rain
7:53 AM 50.0 °F - 43.0 °F 77% 29.83 in 10.0 mi Calm Calm - 0.00 in   Mostly Cloudy
8:53 AM 53.1 °F - 44.1 °F 71% 29.82 in 10.0 mi WNW 8.1 mph - N/A   Overcast
9:53 AM 55.0 °F - 44.1 °F 67% 29.80 in 10.0 mi NNW 8.1 mph - N/A   Overcast
10:53 AM 55.9 °F - 45.0 °F 67% 29.81 in 10.0 mi NNE 8.1 mph - N/A   Overcast
11:53 AM 57.9 °F - 45.0 °F 62% 29.82 in 10.0 mi NW 5.8 mph - 0.00 in   Overcast
12:53 PM 57.0 °F - 46.9 °F 69% 29.80 in 10.0 mi NW 3.5 mph - 0.00 in Rain Light Rain
1:53 PM 57.9 °F - 46.9 °F 67% 29.79 in 10.0 mi NW 3.5 mph - 0.00 in   Overcast
2:53 PM 57.0 °F - 48.9 °F 74% 29.77 in 8.0 mi Calm Calm - 0.02 in Rain Light Rain
3:53 PM 57.9 °F - 50.0 °F 75% 29.75 in 10.0 mi SE 5.8 mph - 0.00 in Rain Light Rain
4:53 PM 59.0 °F - 52.0 °F 78% 29.73 in 10.0 mi East 4.6 mph - 0.00 in   Scattered Clouds
5:53 PM 60.1 °F - 51.1 °F 72% 29.71 in 10.0 mi Calm Calm - N/A   Overcast
6:33 PM 55.4 °F - 53.6 °F 94% 29.77 in 4.0 mi West 8.1 mph - 0.04 in Rain Rain
6:53 PM 55.0 °F - 53.1 °F 93% 29.76 in 5.0 mi SSW 4.6 mph - 0.11 in Rain Rain
7:53 PM 55.9 °F - 53.1 °F 90% 29.74 in 10.0 mi South 8.1 mph - 0.05 in   Partly Cloudy
8:53 PM 55.9 °F - 52.0 °F 87% 29.79 in 10.0 mi SSW 12.7 mph - N/A   Clear
9:53 PM 55.9 °F - 51.1 °F 84% 29.81 in 10.0 mi South 11.5 mph - N/A   Clear
10:53 PM 55.0 °F - 48.9 °F 80% 29.81 in 10.0 mi South 8.1 mph - N/A   Clear
11:53 PM 55.0 °F - 48.9 °F 80% 29.82 in 10.0 mi South 8.1 mph - N/A   Clear